This demonstration page uses our WeatherBlox Daily Observations layout. Learn more.

Left ArrowRight Arrow

41.86663, -103.66717

Hourly Observations for April 13, 2021

Temp ( °F °C ) Dew Point ( °F °C ) Humidity (%) Winds ( mph kmh ) Pressure ( in mb ) Visibility ( mi km ) Precip ( " mm )
12:53 am 00:53 Clear 23 -5 11 -11.7 60 60 NNW 8 13 30.33 1027 10 16.0934 0 0
1:53 am 01:53 Clear 22 -5.6 12 -11.1 66 66 NW 6 9 30.33 1027 10 16.0934 0 0
2:53 am 02:53 Clear 24 -4.4 14 -10 65 65 NW 7 11 30.3 1026 10 16.0934 0 0
3:53 am 03:53 Clear 22 -5.6 13 -10.6 68 68 WNW 8 13 30.31 1026 10 16.0934 0 0
4:53 am 04:53 Clear 24 -4.4 15 -9.4 68 68 WNW 9 15 30.31 1026 10 16.0934 0 0
5:53 am 05:53 Clear 23 -5 15 -9.4 72 72 WNW 8 13 30.32 1027 10 16.0934 0 0
6:53 am 06:53 Sunny 25 -3.9 16 -8.9 69 69 W 9 15 30.34 1027 10 16.0934 0 0
7:53 am 07:53 Sunny 30 -1.1 17 -8.3 58 58 WNW 14 22 30.35 1028 10 16.0934 0 0
8:53 am 08:53 Sunny 35 1.7 18 -7.8 50 50 NW 20 31 30.34 1028 10 16.0934 0 0
9:53 am 09:53 Sunny 38 3.3 15 -9.4 39 39 NW 26 43 30.33 1027 10 16.0934 0 0
10:53 am 10:53 Cloudy 41 5 15 -9.4 35 35 NW 16 26 30.33 1027 10 16.0934 0 0
11:53 am 11:53 Mostly Sunny 44 6.7 13 -10.6 28 28 NW 14 22 30.29 1026 10 16.0934 0 0
12:53 pm 12:53 Partly Cloudy 45 7.2 14 -10 29 29 NW 16 26 30.28 1025 10 16.0934 0 0
1:53 pm 13:53 Cloudy 43 6.1 14 -10 31 31 WNW 13 20 30.28 1025 10 16.0934 0 0
2:53 pm 14:53 Mostly Cloudy 46 7.8 15 -9.4 29 29 W 7 11 30.24 1024 10 16.0934 0 0
3:53 pm 15:53 Cloudy 46 7.8 14 -10 27 27 WNW 14 22 30.23 1024 10 16.0934 0 0
4:53 pm 16:53 Cloudy 46 7.8 13 -10.6 26 26 NNW 13 20 30.22 1023 10 16.0934 0 0
5:53 pm 17:53 Cloudy 46 7.8 13 -10.6 26 26 NW 10 17 30.22 1023 10 16.0934 0 0
6:53 pm 18:53 Mostly Cloudy 44 6.7 12 -11.1 27 27 NNW 8 13 30.23 1024 10 16.0934 0 0
7:53 pm 19:53 Partly Cloudy 40 4.4 12 -11.1 32 32 N 7 11 30.24 1024 10 16.0934 0 0
8:53 pm 20:53 Clear 37 2.8 15 -9.4 41 41 NNE 13 20 30.27 1025 10 16.0934 0 0
9:53 pm 21:53 Clear 35 1.7 15 -9.4 44 44 N 18 30 30.27 1025 10 16.0934 0 0
10:53 pm 22:53 Cloudy 34 1.1 15 -9.4 46 46 NNE 20 31 30.28 1025 10 16.0934 0 0
11:53 pm 23:53 Cloudy 32 0 15 -9.4 50 50 NNE 20 31 30.3 1026 10 16.0934 0 0

Powered by AerisWeather